Location: Debolt
(55.2626°N, 118.0981°W)
Time: 22:58:37
(UTC+00:00)

TIGRISAT - Visible Passes

Search period start: 01 December 2023 00:00
Search period end: 11 December 2023 00:00
Orbit: 598 x 676 km, 97.7° (Epoch: 30 November)

Date Brightness Start Highest point End Pass type
(mag) Time Alt. Az. Time Alt. Az. Time Alt. Az.
01 Dec ? 00:08:29 10° NE 00:12:07 23° E 00:15:40 10° SE visible
01 Dec ? 01:44:29 10° N 01:48:59 59° WNW 01:53:21 10° SSW visible
01 Dec ? 03:22:33 10° NNW 03:24:35 13° NW 03:26:36 10° WNW visible
02 Dec ? 00:30:48 10° NNE 00:34:57 34° E 00:39:00 10° SSE visible
02 Dec ? 02:07:16 10° N 02:11:30 39° WNW 02:15:38 10° SW visible
03 Dec ? 00:53:15 10° NNE 00:57:42 53° E 01:02:01 10° S visible
03 Dec ? 02:30:08 10° N 02:33:56 27° WNW 02:37:40 10° WSW visible
04 Dec ? 01:15:49 10° NNE 01:20:21 82° ESE 01:24:46 10° SSW visible
04 Dec ? 02:53:08 10° N 02:56:19 19° NW 02:59:26 10° W visible
05 Dec ? 01:38:27 10° N 01:42:56 65° WNW 01:47:17 10° SSW visible
05 Dec ? 03:16:21 10° NNW 03:18:36 14° NW 03:20:50 10° W visible
06 Dec ? 00:24:48 10° NNE 00:28:48 31° E 00:32:42 10° SSE visible
06 Dec ? 02:01:10 10° N 02:05:26 43° WNW 02:09:34 10° SW visible
07 Dec ? 00:47:10 10° NNE 00:51:31 47° E 00:55:43 10° S visible
07 Dec ? 02:23:58 10° N 02:27:51 29° WNW 02:31:37 10° WSW visible
08 Dec ? 01:09:40 10° NNE 01:14:09 74° ESE 01:18:30 10° S visible
08 Dec ? 02:46:52 10° N 02:50:10 21° NW 02:53:25 10° WSW visible
09 Dec ? 01:32:14 10° NNE 01:36:42 72° WNW 01:41:02 10° SSW visible
09 Dec ? 03:10:00 10° NNW 03:12:26 15° NW 03:14:51 10° W visible
10 Dec ? 00:18:39 10° NNE 00:22:28 27° E 00:26:11 10° SSE visible
10 Dec ? 01:54:54 10° N 01:59:10 47° WNW 02:03:20 10° SW visible
10 Dec ? 03:33:52 10° NW 03:34:38 10° NW 03:35:24 10° NW visible
